FW6209 Weather Reports


Display with metric or nautical units.
time (UTC)temp
F
wind
direction
speed
MPH
gust
MPH
rain 1hr
in
rain 24hr
in
rain mn
in
humidity
%
barometer
mb
20200712055344 73 220 0.0 1.0 0.00 0.00 0.00 32 1017.0
20200712054839 73 220 0.0 1.0 0.00 0.00 0.00 33 1016.9
20200712054339 73 218 0.0 2.0 0.00 0.00 0.00 40 1017.0
20200712053843 73 218 0.0 2.0 0.00 0.00 0.00 43 1016.9
20200712053341 73 218 0.0 2.0 0.00 0.00 0.00 47 1016.9
20200712052839 73 218 1.0 2.0 0.00 0.00 0.00 49 1016.9
20200712052339 73 215 1.0 2.0 0.00 0.00 0.00 49 1016.9
20200712051833 73 242 1.0 4.0 0.00 0.00 0.00 48 1017.0
20200712051334 73 213 1.0 4.0 0.00 0.00 0.00 48 1017.0
20200712050831 73 201 0.0 3.0 0.00 0.00 0.00 49 1017.0
20200712050333 74 199 0.0 2.0 0.00 0.00 0.00 49 1017.0
20200712045832 74 197 1.0 5.0 0.00 0.00 0.00 50 1016.8
20200712045332 74 207 1.0 5.0 0.00 0.00 0.00 50 1016.9
20200712044832 74 190 1.0 4.0 0.00 0.00 0.00 49 1016.8
20200712044327 75 192 1.0 4.0 0.00 0.00 0.00 47 1016.8
20200712043828 75 185 1.0 3.0 0.00 0.00 0.00 44 1016.8
20200712043326 75 228 0.0 2.0 0.00 0.00 0.00 40 1016.7
20200712042827 75 249 0.0 1.0 0.00 0.00 0.00 32 1016.7
20200712042326 75 249 0.0 0.0 0.00 0.00 0.00 30 1016.5
20200712041824 76 249 0.0 2.0 0.00 0.00 0.00 31 1016.5
20200712041324 76 249 0.0 3.0 0.00 0.00 0.00 32 1016.5
20200712040823 76 249 0.0 3.0 0.00 0.00 0.00 38 1016.4
20200712040322 76 247 0.0 1.0 0.00 0.00 0.00 41 1016.4
20200712035821 77 247 0.0 1.0 0.00 0.00 0.00 42 1016.4
20200712035322 77 247 1.0 2.0 0.00 0.00 0.00 40 1016.3
20200712034817 77 247 1.0 2.0 0.00 0.00 0.00 43 1016.1
20200712034316 78 247 0.0 1.0 0.00 0.00 0.00 43 1016.1
20200712033814 78 247 0.0 1.0 0.00 0.00 0.00 44 1016.3
20200712033315 78 247 0.0 1.0 0.00 0.00 0.00 37 1016.1
20200712032818 79 247 0.0 1.0 0.00 0.00 0.00 39 1016.0
20200712032314 79 247 0.0 1.0 0.00 0.00 0.00 39 1016.0
20200712031812 80 247 0.0 1.0 0.00 0.00 0.00 39 1016.1
20200712031311 80 247 0.0 1.0 0.00 0.00 0.00 37 1016.1
20200712030812 80 247 0.0 1.0 0.00 0.00 0.00 37 1016.1
20200712030311 80 247 0.0 1.0 0.00 0.00 0.00 36 1016.1
20200712025810 81 247 0.0 1.0 0.00 0.00 0.00 36 1016.0
20200712025307 81 247 1.0 3.0 0.00 0.00 0.00 36 1015.9
20200712024805 81 247 1.0 3.0 0.00 0.00 0.00 36 1015.8
20200712024304 82 245 1.0 3.0 0.00 0.00 0.00 36 1015.7
20200712023806 82 247 2.0 3.0 0.00 0.00 0.00 36 1015.8
20200712023304 83 250 1.0 3.0 0.00 0.00 0.00 36 1015.7
20200712022802 83 253 0.0 2.0 0.00 0.00 0.00 34 1015.7
20200712022303 84 252 0.0 1.0 0.00 0.00 0.00 32 1015.5
20200712021756 84 252 0.0 2.0 0.00 0.00 0.00 32 1015.5
20200712021258 84 252 0.0 3.0 0.00 0.00 0.00 31 1015.5
20200712020759 85 254 0.0 3.0 0.00 0.00 0.00 30 1015.4
20200712020258 85 203 1.0 3.0 0.00 0.00 0.00 30 1015.5
20200712015755 85 215 1.0 3.0 0.00 0.00 0.00 31 1015.4
20200712015256 86 235 1.0 4.0 0.00 0.00 0.00 31 1015.4
20200712014748 86 238 1.0 4.0 0.00 0.00 0.00 29 1015.5
20200712014247 86 254 1.0 3.0 0.00 0.00 0.00 28 1015.4
20200712013749 86 235 1.0 4.0 0.00 0.00 0.00 28 1015.5
20200712013248 87 249 1.0 6.0 0.00 0.00 0.00 28 1015.5
20200712012748 87 258 1.0 6.0 0.00 0.00 0.00 27 1015.4
20200712012248 87 252 2.0 7.0 0.00 0.00 0.00 27 1015.5
20200712011742 88 272 1.0 7.0 0.00 0.00 0.00 24 1015.4
20200712011247 89 238 1.0 3.0 0.00 0.00 0.00 24 1015.4
20200712010744 89 255 1.0 3.0 0.00 0.00 0.00 23 1015.4
20200712010240 89 194 1.0 1.0 0.00 0.00 0.00 21 1015.3
20200712005630 89 269 1.0 5.0 0.00 0.00 0.00 21 1015.3
20200712005130 90 239 2.0 5.0 0.00 0.00 0.00 21 1015.4
20200712004625 90 271 1.0 3.0 0.00 0.00 0.00 19 1015.3
20200712004128 90 252 1.0 4.0 0.00 0.00 0.00 20 1015.4
20200712003626 90 210 1.0 4.0 0.00 0.00 0.00 20 1015.4
20200712003128 90 273 2.0 8.0 0.00 0.00 0.00 23 1015.5
20200712002624 90 230 2.0 9.0 0.00 0.00 0.00 22 1015.5
20200712002121 90 254 2.0 9.0 0.00 0.00 0.00 21 1015.6
20200712001621 91 229 2.0 7.0 0.00 0.00 0.00 21 1015.6
20200712001123 91 254 2.0 7.0 0.00 0.00 0.00 20 1015.7
20200712000621 91 253 2.0 8.0 0.00 0.00 0.00 19 1015.9
20200712000120 91 239 3.0 8.0 0.00 0.00 0.00 20 1015.9
20200711235619 91 256 2.0 8.0 0.00 0.00 0.00 19 1015.8
20200711235116 91 257 3.0 10.0 0.00 0.00 0.00 18 1015.8
20200711234624 91 241 3.0 10.0 0.00 0.00 0.00 21 1015.9
20200711234118 92 246 4.0 9.0 0.00 0.00 0.00 21 1016.0
20200711233618 92 273 2.0 9.0 0.00 0.00 0.00 17 1016.0
20200711233119 92 283 2.0 9.0 0.00 0.00 0.00 20 1016.1
20200711232620 93 217 2.0 7.0 0.00 0.00 0.00 23 1016.1
20200711232115 93 254 2.0 7.0 0.00 0.00 0.00 17 1015.9
20200711231614 93 246 2.0 7.0 0.00 0.00 0.00 18 1016.0
20200711231112 93 262 2.0 7.0 0.00 0.00 0.00 21 1016.3
20200711230608 93 239 3.0 7.0 0.00 0.00 0.00 18 1016.3
20200711230109 92 231 3.0 10.0 0.00 0.00 0.00 18 1016.1
20200711225620 92 238 3.0 10.0 0.00 0.00 0.00 19 1016.1
20200711225107 93 310 4.0 10.0 0.00 0.00 0.00 15 1016.3
20200711224608 93 300 3.0 10.0 0.00 0.00 0.00 16 1016.1
20200711224107 93 200 4.0 10.0 0.00 0.00 0.00 16 1015.9
20200711223610 94 229 4.0 10.0 0.00 0.00 0.00 21 1015.9
20200711223108 94 271 2.0 9.0 0.00 0.00 0.00 21 1016.1
20200711222609 94 244 2.0 9.0 0.00 0.00 0.00 21 1016.1
20200711222110 94 194 3.0 9.0 0.00 0.00 0.00 21 1016.3
20200711221603 94 252 4.0 8.0 0.00 0.00 0.00 20 1016.4
20200711221103 94 268 3.0 8.0 0.00 0.00 0.00 19 1016.4
20200711220604 94 246 3.0 8.0 0.00 0.00 0.00 20 1016.5
20200711220103 94 189 3.0 9.0 0.00 0.00 0.00 19 1016.6
20200711215605 94 184 3.0 9.0 0.00 0.00 0.00 19 1016.5
20200711215102 95 252 3.0 8.0 0.00 0.00 0.00 20 1016.4
20200711214556 94 216 3.0 8.0 0.00 0.00 0.00 20 1016.4
20200711214056 94 196 4.0 9.0 0.00 0.00 0.00 22 1016.4
20200711213554 94 216 4.0 9.0 0.00 0.00 0.00 22 1016.4
20200711213055 94 196 3.0 8.0 0.00 0.00 0.00 23 1016.5
20200711212554 94 173 3.0 8.0 0.00 0.00 0.00 25 1016.6
20200711212056 94 188 4.0 12.0 0.00 0.00 0.00 26 1016.7
20200711211557 94 207 4.0 12.0 0.00 0.00 0.00 26 1016.7
20200711211052 95 170 3.0 10.0 0.00 0.00 0.00 25 1016.5
20200711210607 94 241 5.0 13.0 0.00 0.00 0.00 26 1016.4
20200711210053 95 248 6.0 13.0 0.00 0.00 0.00 25 1016.4
20200711205556 95 194 6.0 12.0 0.00 0.00 0.00 25 1016.4
20200711205053 96 170 5.0 11.0 0.00 0.00 0.00 25 1016.5
20200711204553 97 273 4.0 10.0 0.00 0.00 0.00 22 1016.4
20200711204054 97 299 4.0 10.0 0.00 0.00 0.00 21 1016.5
20200711203547 98 218 5.0 11.0 0.00 0.00 0.00 24 1016.3
20200711203048 97 299 5.0 11.0 0.00 0.00 0.00 23 1016.5
20200711202550 98 290 4.0 10.0 0.00 0.00 0.00 20 1016.6
20200711202048 98 264 3.0 11.0 0.00 0.00 0.00 21 1016.7
20200711201548 98 286 3.0 11.0 0.00 0.00 0.00 19 1016.8
20200711201047 97 257 3.0 10.0 0.00 0.00 0.00 15 1016.7
20200711200545 97 230 4.0 10.0 0.00 0.00 0.00 18 1016.8
20200711200042 97 259 3.0 10.0 0.00 0.00 0.00 17 1016.9
20200711195542 98 257 2.0 10.0 0.00 0.00 0.00 19 1016.7
20200711195042 98 275 2.0 6.0 0.00 0.00 0.00 22 1016.9
20200711194543 97 229 2.0 7.0 0.00 0.00 0.00 23 1017.0
20200711194042 97 5 2.0 7.0 0.00 0.00 0.00 16 1017.0
20200711193539 97 268 2.0 4.0 0.00 0.00 0.00 23 1016.9
20200711193037 96 311 2.0 6.0 0.00 0.00 0.00 16 1017.0
20200711192535 95 17 2.0 6.0 0.00 0.00 0.00 22 1017.2
20200711192035 95 243 2.0 7.0 0.00 0.00 0.00 20 1017.4
20200711191533 95 288 2.0 7.0 0.00 0.00 0.00 23 1017.1
20200711191034 96 346 2.0 4.0 0.00 0.00 0.00 21 1017.1
20200711190534 96 349 2.0 4.0 0.00 0.00 0.00 17 1017.1
20200711190034 95 12 2.0 6.0 0.00 0.00 0.00 25 1017.3
20200711185528 96 32 2.0 6.0 0.00 0.00 0.00 24 1017.3
20200711185024 96 278 2.0 6.0 0.00 0.00 0.00 24 1017.5
20200711184525 95 32 2.0 5.0 0.00 0.00 0.00 25 1017.5
20200711184254 94 355 2.0 5.0 0.00 0.00 0.00 25 1017.6
20200711183524 93 15 2.0 5.0 0.00 0.00 0.00 26 1017.7
20200711183020 93 34 2.0 7.0 0.00 0.00 0.00 27 1017.6
20200711182522 92 344 3.0 7.0 0.00 0.00 0.00 30 1017.5
20200711182020 92 22 3.0 7.0 0.00 0.00 0.00 29 1017.5
20200711181520 92 328 3.0 6.0 0.00 0.00 0.00 31 1017.6
20200711181014 92 13 3.0 6.0 0.00 0.00 0.00 32 1017.7
20200711180522 92 73 2.0 6.0 0.00 0.00 0.00 33 1017.7
20200711180018 92 56 2.0 8.0 0.00 0.00 0.00 33 1017.6
20200711175516 91 336 3.0 8.0 0.00 0.00 0.00 33 1017.8
20200711175016 91 333 2.0 5.0 0.00 0.00 0.00 32 1017.8
20200711174517 91 12 2.0 5.0 0.00 0.00 0.00 33 1017.8
20200711174014 91 17 2.0 5.0 0.00 0.00 0.00 32 1017.9
20200711173512 91 342 2.0 5.0 0.00 0.00 0.00 32 1017.9
20200711173015 91 355 2.0 5.0 0.00 0.00 0.00 32 1017.9
20200711172513 91 9 2.0 6.0 0.00 0.00 0.00 31 1017.8
20200711172010 91 349 2.0 6.0 0.00 0.00 0.00 32 1017.8
20200711171512 91 5 2.0 5.0 0.00 0.00 0.00 31 1017.7
20200711171011 90 0 1.0 5.0 0.00 0.00 0.00 30 1017.7
20200711170508 89 52 2.0 5.0 0.00 0.00 0.00 27 1017.7
20200711170008 90 28 2.0 4.0 0.00 0.00 0.00 27 1017.7
20200711165509 90 355 2.0 4.0 0.00 0.00 0.00 28 1017.6
20200711165008 90 338 1.0 3.0 0.00 0.00 0.00 29 1017.6
20200711164508 89 295 1.0 4.0 0.00 0.00 0.00 29 1017.7
20200711164004 90 317 1.0 4.0 0.00 0.00 0.00 29 1017.6
20200711163503 90 311 1.0 3.0 0.00 0.00 0.00 31 1017.7
20200711163004 89 340 1.0 3.0 0.00 0.00 0.00 31 1017.7
20200711162502 89 339 1.0 3.0 0.00 0.00 0.00 31 1017.6
20200711162004 89 11 1.0 3.0 0.00 0.00 0.00 28 1017.6
20200711161506 89 132 1.0 2.0 0.00 0.00 0.00 26 1017.7
20200711160958 88 95 1.0 2.0 0.00 0.00 0.00 28 1017.5
20200711160500 88 69 1.0 2.0 0.00 0.00 0.00 27 1017.6
20200711160000 87 77 1.0 2.0 0.00 0.00 0.00 27 1017.5
20200711155501 86 54 0.0 2.0 0.00 0.00 0.00 26 1017.5
20200711155001 86 11 0.0 2.0 0.00 0.00 0.00 25 1017.7
20200711154500 85 11 1.0 3.0 0.00 0.00 0.00 26 1017.7
20200711153954 85 9 1.0 3.0 0.00 0.00 0.00 26 1017.6
20200711153454 85 38 1.0 3.0 0.00 0.00 0.00 32 1017.6
20200711152955 84 15 1.0 3.0 0.00 0.00 0.00 32 1017.6
20200711152457 84 11 1.0 3.0 0.00 0.00 0.00 28 1017.6
20200711151954 83 30 1.0 3.0 0.00 0.00 0.00 35 1017.6
20200711151456 83 31 1.0 2.0 0.00 0.00 0.00 30 1017.4
20200711150951 82 32 0.0 2.0 0.00 0.00 0.00 35 1017.5
20200711150452 81 21 0.0 2.0 0.00 0.00 0.00 35 1017.4
20200711145953 81 21 0.0 2.0 0.00 0.00 0.00 37 1017.4
20200711145452 80 17 0.0 1.0 0.00 0.00 0.00 42 1017.4
20200711144953 79 17 1.0 2.0 0.00 0.00 0.00 42 1017.4
20200711144452 79 17 1.0 2.0 0.00 0.00 0.00 42 1017.5
20200711143948 78 17 1.0 2.0 0.00 0.00 0.00 43 1017.6
20200711143446 78 67 0.0 2.0 0.00 0.00 0.00 44 1017.5
20200711142948 77 68 0.0 2.0 0.00 0.00 0.00 45 1017.4
20200711142446 77 68 1.0 2.0 0.00 0.00 0.00 44 1017.3
20200711141946 76 69 1.0 3.0 0.00 0.00 0.00 47 1017.4
20200711141448 76 69 1.0 3.0 0.00 0.00 0.00 48 1017.4
20200711140947 75 51 1.0 3.0 0.00 0.00 0.00 49 1017.4
20200711140445 75 48 0.0 3.0 0.00 0.00 0.00 49 1017.2
20200711135944 74 56 0.0 2.0 0.00 0.00 0.00 53 1017.2
20200711135442 73 56 0.0 1.0 0.00 0.00 0.00 52 1017.2
20200711134943 73 56 0.0 1.0 0.00 0.00 0.00 48 1017.1
20200711134443 73 56 1.0 1.0 0.00 0.00 0.00 50 1017.1
20200711134209 72 56 0.0 1.0 0.00 0.00 0.00 50 1017.2
20200711133951 72 56 0.0 1.0 0.00 0.00 0.00 50 1017.2
20200711133439 71 56 0.0 1.0 0.00 0.00 0.00 53 1017.2
20200711132939 71 56 0.0 1.0 0.00 0.00 0.00 53 1017.1
20200711132440 70 56 0.0 1.0 0.00 0.00 0.00 54 1017.0
20200711131939 70 56 0.0 2.0 0.00 0.00 0.00 54 1017.0
20200711131443 70 56 0.0 2.0 0.00 0.00 0.00 54 1017.2
20200711130934 70 56 0.0 2.0 0.00 0.00 0.00 54 1017.2
20200711130434 70 56 0.0 2.0 0.00 0.00 0.00 54 1017.2
20200711125936 70 55 0.0 1.0 0.00 0.00 0.00 54 1017.1
20200711125436 70 55 0.0 0.0 0.00 0.00 0.00 55 1017.0
20200711124934 70 55 0.0 0.0 0.00 0.00 0.00 55 1016.9
20200711124436 70 55 0.0 0.0 0.00 0.00 0.00 55 1017.0
20200711123930 70 55 0.0 0.0 0.00 0.00 0.00 55 1016.9
20200711123432 70 55 0.0 0.0 0.00 0.00 0.00 55 1016.9
20200711122934 70 55 0.0 1.0 0.00 0.00 0.00 56 1016.8
20200711122431 70 55 0.0 1.0 0.00 0.00 0.00 56 1016.8
20200711121932 70 55 0.0 1.0 0.00 0.00 0.00 56 1016.8
20200711121433 70 55 0.0 1.0 0.00 0.00 0.00 56 1016.9
20200711120928 70 55 0.0 1.0 0.00 0.00 0.00 56 1016.8
20200711120427 70 55 0.0 0.0 0.00 0.00 0.00 55 1016.7
20200711115928 70 55 0.0 0.0 0.00 0.00 0.00 55 1016.7
20200711115426 70 55 0.0 0.0 0.00 0.00 0.00 53 1016.6
20200711114927 70 55 0.0 0.0 0.00 0.00 0.00 52 1016.6
20200711114428 70 55 0.0 0.0 0.00 0.00 0.00 50 1016.4
20200711113922 70 55 0.0 1.0 0.00 0.00 0.00 49 1016.4
20200711113423 69 55 0.0 1.0 0.00 0.00 0.00 47 1016.1
20200711112924 69 55 0.0 1.0 0.00 0.00 0.00 44 1016.1
20200711112423 70 55 0.0 0.0 0.00 0.00 0.00 51 1016.1
20200711111923 70 55 0.0 0.0 0.00 0.00 0.00 53 1016.0
20200711111424 70 55 0.0 0.0 0.00 0.00 0.00 54 1016.0
20200711110919 70 55 0.0 0.0 0.00 0.00 0.00 54 1016.1
20200711110419 70 55 0.0 2.0 0.00 0.00 0.00 53 1016.1
20200711105921 70 55 1.0 2.0 0.00 0.00 0.00 54 1016.1
20200711105419 70 55 1.0 2.0 0.00 0.00 0.00 54 1016.1
20200711104919 70 55 0.0 1.0 0.00 0.00 0.00 53 1016.1
20200711104420 70 55 0.0 1.0 0.00 0.00 0.00 55 1016.3
20200711103914 70 55 0.0 1.0 0.00 0.00 0.00 55 1016.3
20200711103415 70 55 1.0 2.0 0.00 0.00 0.00 55 1016.1
20200711102916 70 55 1.0 2.0 0.00 0.00 0.00 51 1016.1
20200711102414 71 55 0.0 2.0 0.00 0.00 0.00 54 1016.1
20200711101920 71 57 0.0 0.0 0.00 0.00 0.00 54 1016.1
20200711101415 71 57 0.0 1.0 0.00 0.00 0.00 52 1016.3
20200711100911 71 57 1.0 2.0 0.00 0.00 0.00 51 1016.4
20200711100410 71 57 1.0 2.0 0.00 0.00 0.00 52 1016.3
20200711095911 71 57 0.0 2.0 0.00 0.00 0.00 52 1016.1
20200711095411 71 57 0.0 2.0 0.00 0.00 0.00 53 1016.1
20200711094911 71 57 1.0 2.0 0.00 0.00 0.00 52 1016.1
20200711094412 71 57 1.0 2.0 0.00 0.00 0.00 51 1016.1
20200711093906 71 58 0.0 2.0 0.00 0.00 0.00 51 1016.1
20200711093406 72 58 0.0 1.0 0.00 0.00 0.00 53 1016.1
20200711092911 72 58 0.0 1.0 0.00 0.00 0.00 52 1016.3
20200711092404 72 58 1.0 2.0 0.00 0.00 0.00 50 1016.4
20200711091904 72 58 1.0 2.0 0.00 0.00 0.00 51 1016.4
20200711091404 72 58 1.0 2.0 0.00 0.00 0.00 49 1016.3
20200711090903 72 58 1.0 2.0 0.00 0.00 0.00 51 1016.3
20200711090404 72 59 0.0 2.0 0.00 0.00 0.00 48 1016.3
20200711085859 72 59 0.0 1.0 0.00 0.00 0.00 48 1016.4
20200711085359 73 59 0.0 1.0 0.00 0.00 0.00 49 1016.5
20200711084900 73 59 0.0 1.0 0.00 0.00 0.00 49 1016.6
20200711084400 73 59 0.0 1.0 0.00 0.00 0.00 47 1016.7
20200711083858 73 59 0.0 1.0 0.00 0.00 0.00 47 1016.8
20200711083356 73 59 0.0 1.0 0.00 0.00 0.00 49 1016.7
20200711082854 73 59 0.0 1.0 0.00 0.00 0.00 50 1016.6
20200711082353 73 59 0.0 1.0 0.00 0.00 0.00 50 1016.7
20200711081853 73 59 0.0 1.0 0.00 0.00 0.00 51 1016.6
20200711081353 73 59 0.0 1.0 0.00 0.00 0.00 48 1016.6
20200711080851 72 59 0.0 1.0 0.00 0.00 0.00 52 1016.6
20200711080351 72 59 0.0 1.0 0.00 0.00 0.00 53 1016.6
20200711075844 72 59 0.0 1.0 0.00 0.00 0.00 53 1016.6
20200711075348 72 59 0.0 1.0 0.00 0.00 0.00 53 1016.6
20200711074846 72 59 0.0 1.0 0.00 0.00 0.00 54 1016.6
20200711074346 72 59 0.0 1.0 0.00 0.00 0.00 56 1016.5
20200711073843 73 59 0.0 1.0 0.00 0.00 0.00 57 1016.5
20200711073343 73 59 0.0 1.0 0.00 0.00 0.00 58 1016.6
20200711072838 73 59 0.0 1.0 0.00 0.00 0.00 58 1016.6
20200711072337 73 59 0.0 0.0 0.00 0.00 0.00 57 1016.7
20200711071835 73 59 0.0 0.0 0.00 0.00 0.00 57 1016.7
20200711071332 73 59 0.0 0.0 0.00 0.00 0.00 56 1016.7
20200711070832 73 59 0.0 0.0 0.00 0.00 0.00 56 1016.9
20200711070324 73 59 0.0 0.0 0.00 0.00 0.00 54 1016.8
20200711065823 73 59 0.0 0.0 0.00 0.00 0.00 53 1016.7
20200711065322 73 59 0.0 0.0 0.00 0.00 0.00 53 1016.7
20200711064820 73 59 0.0 0.0 0.00 0.00 0.00 53 1016.7
20200711064320 72 59 0.0 1.0 0.00 0.00 0.00 55 1016.7
20200711063814 72 59 0.0 1.0 0.00 0.00 0.00 59 1016.7
20200711063312 72 59 0.0 1.0 0.00 0.00 0.00 59 1016.7
20200711062810 72 59 0.0 1.0 0.00 0.00 0.00 60 1016.6
20200711062308 72 59 0.0 1.0 0.00 0.00 0.00 63 1016.7
20200711061809 71 59 0.0 0.0 0.00 0.00 0.00 64 1016.7
20200711061301 71 59 0.0 0.0 0.00 0.00 0.00 65 1016.7
20200711060801 71 59 0.0 1.0 0.00 0.00 0.00 63 1016.7
20200711060301 71 59 0.0 1.0 0.00 0.00 0.00 60 1016.6
20200711055805 71 59 0.0 1.0 0.00 0.00 0.00 56 1016.6